Theta_e
351 352 344 336 337 339 341 344 342 342 342 341 340 338 338 340 339 336 334 331 334 337 338 338 337 336 335 336 337 338 337 338 337 339 340 340 341 341 342 341 341 340 339 338 339 338 337 337 337 337 336 334 334 334 334 334 333 334 335 337 338 338 338 339 341 341 341 341 340 340 340 340 340 340 340 340 340 340 340 339 339 338 338 338 338
351 350 344 337 337 340 342 345 343 343 343 342 340 339 340 340 339 336 334 332 335 338 339 338 337 336 336 337 338 339 339 339 339 341 342 342 342 342 342 341 340 339 338 338 338 338 337 338 337 336 336 335 335 335 334 333 332 333 334 335 336 337 338 338 340 340 340 340 340 340 339 340 340 340 340 340 339 338 337 336 337 337 337 337 337
350 349 348 341 337 341 344 345 344 344 343 343 340 341 341 340 339 336 335 334 336 339 340 339 337 338 337 337 337 338 338 339 341 342 343 342 342 341 342 341 339 338 338 338 338 338 338 338 337 336 336 336 335 335 334 333 332 332 333 334 334 336 338 338 339 339 339 339 339 339 339 340 340 340 340 339 337 335 332 331 333 335 335 336 336
349 349 348 344 339 342 345 346 345 345 344 344 342 342 341 340 339 336 335 335 336 339 341 340 338 338 337 337 336 336 338 340 342 342 342 341 341 341 341 341 338 337 338 338 338 338 338 338 337 337 336 335 333 333 334 334 333 332 332 333 333 336 338 338 338 339 339 340 340 340 341 341 341 340 339 337 336 335 332 329 330 333 334 335 336
349 348 348 346 344 344 344 346 346 346 346 345 344 343 341 340 338 337 336 335 337 339 341 339 337 337 337 337 336 336 338 339 340 340 339 340 341 341 342 340 337 338 339 338 338 338 338 338 338 338 337 335 331 329 331 332 332 331 332 332 333 335 336 336 336 338 339 340 340 340 341 341 340 339 338 336 334 335 335 331 331 334 333 333 335
349 347 347 347 347 347 344 346 347 347 346 345 344 343 342 341 339 338 337 336 338 339 339 338 338 338 337 337 338 339 339 338 338 339 339 340 341 342 342 339 338 339 339 338 339 338 338 339 338 339 338 335 332 329 327 330 332 331 332 332 333 334 335 335 335 336 337 339 339 339 339 339 340 339 337 335 333 333 334 334 334 333 332 332 333
348 346 347 345 346 347 345 346 347 347 346 345 345 343 343 341 340 339 338 338 337 337 337 338 340 338 337 338 339 340 339 338 339 340 340 340 341 341 340 338 339 339 338 339 339 338 338 338 339 339 338 336 334 330 326 329 332 332 332 333 332 333 334 334 335 335 336 337 337 335 335 337 338 338 336 336 335 333 333 334 335 333 332 332 332
347 346 345 344 346 346 345 346 347 347 346 346 345 344 343 342 341 340 339 338 337 337 339 340 339 337 338 339 340 339 338 338 338 340 340 340 340 339 339 339 339 339 338 340 340 338 337 338 338 338 338 337 336 332 325 324 330 332 332 332 331 333 333 332 333 334 334 334 333 331 333 335 336 336 336 336 336 335 333 333 334 333 333 332 332
346 345 344 346 347 345 344 345 346 346 346 345 345 344 344 343 341 340 339 338 338 339 341 341 339 339 340 340 339 338 338 339 340 340 341 341 338 337 338 339 340 340 340 340 341 340 339 339 338 338 338 337 337 334 328 323 325 328 331 332 331 332 331 329 332 334 333 332 334 335 334 335 335 335 335 336 335 335 334 333 333 333 332 331 331
346 346 345 346 346 343 342 343 345 345 345 345 344 344 343 342 341 339 339 339 339 340 341 341 340 341 340 339 338 338 340 341 342 341 342 341 336 335 338 340 340 341 341 340 341 341 340 339 339 339 338 337 336 334 331 325 323 323 325 328 329 328 327 329 334 333 332 332 334 336 335 335 335 334 334 334 333 332 332 332 332 333 332 331 331
346 346 345 346 345 341 341 342 343 345 345 344 344 343 343 342 340 340 340 341 340 340 340 340 340 340 339 337 338 341 340 341 342 342 342 339 335 336 339 341 341 341 341 341 341 340 340 340 340 338 337 336 335 333 331 327 324 321 319 322 325 326 328 332 335 332 331 333 333 334 334 333 333 332 332 331 331 330 330 330 332 332 331 331 330
347 346 345 345 343 339 339 342 343 344 344 344 343 343 343 342 341 342 341 341 340 339 338 339 339 339 340 337 338 341 340 340 342 342 341 337 334 338 340 341 341 341 341 341 340 340 340 340 339 336 335 334 334 333 331 329 324 319 320 325 328 330 332 334 336 333 333 335 334 334 333 332 332 331 331 331 330 330 330 330 331 330 329 329 329
347 346 346 345 343 340 340 341 343 343 344 343 342 342 342 342 342 342 341 341 341 339 336 337 339 340 339 337 339 341 339 340 341 341 339 335 335 339 341 341 340 340 340 340 339 340 339 338 336 334 334 334 334 333 331 329 325 319 323 330 331 331 332 334 335 334 335 334 333 334 333 333 332 331 331 331 330 330 330 330 330 329 328 328 328
347 347 346 345 343 342 341 341 342 342 342 342 342 342 343 343 343 342 340 340 339 338 337 338 340 341 339 337 340 340 339 339 339 340 339 335 336 340 341 340 339 340 340 339 339 339 338 335 334 334 334 334 334 332 330 328 325 320 324 330 331 331 333 335 334 333 334 334 335 334 333 333 331 331 331 331 330 329 329 329 329 329 329 329 328
347 347 345 343 343 342 342 341 342 341 341 342 342 343 342 342 341 339 337 337 338 338 339 340 341 341 339 339 339 338 337 336 337 339 338 336 337 340 341 340 339 340 340 339 339 338 336 334 334 335 334 334 332 331 329 328 325 321 324 330 331 332 335 336 334 334 335 334 334 333 333 331 329 330 330 330 329 329 328 328 329 329 329 328 328
347 346 344 342 342 342 341 341 342 342 342 342 341 341 340 339 337 335 334 337 339 340 341 341 342 342 341 340 339 338 338 336 336 337 337 335 335 338 340 340 340 340 340 339 338 337 335 334 334 335 335 333 332 330 329 328 327 324 326 331 332 333 335 337 335 335 335 334 334 333 332 330 329 329 330 330 329 329 328 328 328 328 328 328 328
348 345 343 342 341 341 341 340 340 341 342 342 341 340 339 337 335 336 338 339 340 340 341 342 343 342 341 340 339 339 337 336 335 335 335 335 335 337 339 339 340 339 339 338 337 336 335 334 334 335 335 333 332 331 330 329 328 327 327 331 333 333 334 336 335 335 335 335 335 333 331 330 330 330 329 329 329 328 328 328 328 328 328 328 328
347 345 343 342 341 340 342 341 339 339 339 339 340 341 339 337 337 339 340 340 340 341 342 342 341 339 338 337 338 338 337 335 334 333 332 333 334 337 339 340 340 339 338 337 336 336 334 334 334 334 335 334 333 332 331 330 330 328 329 332 334 334 335 335 334 335 336 336 334 332 331 330 330 330 329 329 328 328 328 328 328 328 328 328 328
345 345 344 341 342 340 342 342 340 339 337 336 337 338 338 338 339 340 340 339 340 341 341 341 339 336 335 336 337 337 336 335 335 333 331 332 333 335 338 339 339 338 337 337 336 335 334 334 333 334 335 334 334 333 332 331 331 329 331 335 336 336 337 336 334 334 336 335 333 331 331 330 330 330 329 329 328 328 328 328 328 328 328 327 328
344 343 343 342 341 340 342 342 342 341 338 338 336 335 337 338 338 337 337 338 338 339 340 339 338 336 335 335 335 336 336 335 335 334 332 331 332 334 335 337 338 338 336 336 335 334 333 333 333 334 334 335 334 333 333 332 332 330 333 337 337 337 338 336 334 334 335 334 332 331 331 330 330 330 329 328 328 328 327 328 327 327 327 327 327
341 341 342 342 341 341 342 342 342 341 340 341 338 336 335 336 336 336 336 336 337 338 338 338 337 336 334 334 335 336 336 335 336 337 334 333 333 334 335 336 337 336 335 334 334 334 332 332 332 333 334 334 334 334 333 333 332 331 334 336 337 338 338 336 334 333 334 333 332 331 330 330 329 330 329 329 328 328 328 328 327 327 327 326 326
340 341 341 340 341 341 340 340 342 341 341 342 340 337 335 337 337 336 337 337 338 338 339 339 338 337 334 335 337 338 337 337 338 338 337 335 334 333 334 336 335 335 334 333 333 332 331 331 331 332 333 334 334 334 333 332 332 332 334 336 337 338 338 336 335 333 334 333 332 330 330 330 329 329 329 329 328 327 327 327 327 327 326 326 326
339 340 340 340 340 340 340 341 342 341 340 341 340 337 336 339 338 337 338 339 340 339 339 339 338 338 336 338 340 339 338 338 339 339 338 337 336 333 334 335 334 333 333 332 332 331 330 329 330 331 332 333 335 336 335 334 333 332 333 336 338 338 337 336 335 333 333 333 331 329 329 329 329 329 329 329 328 326 327 327 326 326 326 326 325
340 339 340 340 340 339 340 341 341 340 340 341 340 339 339 340 338 338 339 339 340 339 339 339 340 339 338 339 339 338 338 339 339 339 339 338 337 335 335 335 334 332 331 332 331 330 329 329 328 329 331 333 335 337 336 337 336 335 335 337 338 336 336 337 334 333 334 333 331 329 329 329 330 330 329 329 328 327 327 327 327 326 326 325 324
340 339 340 340 341 339 340 340 340 341 341 341 341 340 340 339 337 337 337 338 338 339 339 340 340 338 338 338 338 338 339 340 339 339 339 338 338 337 336 336 336 333 331 332 331 330 330 330 329 328 330 333 335 336 335 336 338 338 338 338 337 336 336 336 334 333 334 333 331 331 330 330 330 329 329 328 327 327 327 326 326 326 326 324 323
337 339 341 340 341 339 340 339 339 341 341 341 341 340 340 338 336 337 337 336 338 340 339 339 339 338 337 337 338 339 339 339 338 337 338 338 337 337 336 334 335 334 332 333 333 331 331 332 331 330 333 333 333 334 334 334 336 337 338 338 336 335 335 335 335 334 335 333 332 332 332 332 329 327 326 327 327 326 326 325 324 324 324 324 323
339 340 340 341 341 340 340 340 340 341 340 341 342 340 339 338 337 338 338 338 339 340 339 339 339 338 337 337 338 338 336 336 337 336 336 335 335 335 334 332 333 333 333 334 334 332 332 333 333 333 334 333 332 333 333 333 333 334 335 337 335 334 335 334 334 335 335 334 333 333 333 332 328 324 323 326 328 326 326 326 325 323 323 325 324
340 341 341 341 341 340 340 341 341 341 341 341 342 340 338 338 340 340 340 340 339 338 339 339 338 338 338 338 338 336 334 335 335 336 335 335 335 335 334 333 333 333 334 334 334 334 334 335 334 333 333 332 331 331 332 332 332 333 334 335 335 334 335 333 334 335 334 334 334 333 332 331 328 325 325 327 328 326 326 327 326 324 324 326 324
340 341 341 341 341 340 341 341 340 340 341 341 341 340 338 338 340 341 342 340 338 338 338 338 338 338 339 339 339 337 335 335 335 336 336 337 337 337 336 335 335 335 335 335 334 335 335 334 334 333 332 331 331 331 331 331 331 332 333 335 334 334 334 333 334 334 333 335 334 331 331 330 328 327 326 327 327 327 327 327 326 325 324 324 323
341 342 342 341 342 342 341 340 339 340 340 340 340 340 339 338 339 341 342 341 339 339 339 339 339 339 340 341 341 340 337 336 337 337 337 338 338 337 337 336 336 335 335 336 336 336 334 334 334 333 332 332 333 332 332 332 330 332 333 334 333 334 333 333 333 333 334 335 334 331 330 330 329 329 328 328 327 327 327 327 326 324 323 323 324
342 342 342 340 342 342 341 339 339 340 340 340 340 340 341 340 340 341 340 340 340 340 340 341 341 340 341 342 341 339 338 338 338 337 338 338 338 338 338 337 337 336 336 337 336 336 334 334 334 334 334 334 334 333 333 332 331 331 331 333 333 333 332 332 331 332 335 334 333 333 331 330 330 330 331 330 328 326 326 326 326 325 324 325 325
341 342 341 340 341 341 340 339 339 339 339 340 340 340 340 340 340 340 338 339 339 340 340 339 339 340 342 342 340 338 338 338 337 337 337 337 338 338 338 337 337 337 337 336 336 336 335 335 337 338 337 336 335 334 334 334 333 332 332 333 332 331 331 332 330 331 334 333 333 334 331 330 330 330 331 331 329 326 325 326 327 326 326 326 325
341 342 342 341 342 342 341 341 339 339 340 340 340 340 339 338 339 339 337 337 337 338 339 339 338 338 338 338 337 336 337 338 338 337 336 337 338 338 337 337 337 336 337 337 336 336 336 336 337 338 336 336 337 336 335 335 335 334 334 332 332 332 332 332 331 331 331 332 333 334 333 331 330 329 330 330 330 329 326 326 326 325 326 327 326
341 342 341 341 342 342 342 341 340 340 340 338 338 339 338 337 339 339 338 337 337 336 337 339 339 337 335 335 336 336 337 339 338 337 337 337 337 337 337 336 335 334 335 336 337 336 336 335 335 335 335 336 336 336 335 335 335 335 334 333 333 333 333 332 332 332 330 331 332 333 334 333 331 330 329 328 329 330 329 328 327 325 326 327 326
340 341 341 341 341 341 341 340 340 340 339 339 339 339 337 337 338 339 338 337 337 337 338 340 339 337 335 335 336 336 337 338 337 337 337 337 338 337 337 336 335 335 334 336 337 336 336 335 334 334 335 335 335 335 335 335 336 336 336 335 334 333 332 333 333 333 333 333 332 333 334 333 332 331 329 328 328 329 330 330 328 327 328 328 328
340 340 341 340 341 341 340 340 340 340 340 340 340 339 337 337 338 337 336 335 336 338 338 338 338 337 336 336 337 337 337 337 336 337 337 337 337 337 336 337 337 336 336 337 337 336 336 336 335 335 335 334 334 334 335 336 336 337 337 335 334 333 332 333 334 335 335 333 332 332 332 332 332 332 330 330 329 328 328 329 328 328 329 329 329
340 341 341 340 341 341 341 340 339 339 339 339 340 339 338 337 337 335 333 333 335 337 336 335 337 338 337 337 337 337 336 336 336 336 336 336 336 335 337 338 337 337 338 337 337 336 336 337 337 336 335 334 333 333 335 336 336 336 336 334 334 333 333 333 334 335 335 333 333 332 331 332 332 332 331 331 330 328 327 327 328 328 329 329 329
341 341 342 341 341 341 340 340 339 339 339 339 338 339 339 338 337 335 333 334 336 337 336 336 337 338 337 336 336 337 336 336 335 335 336 335 335 335 336 337 338 338 338 337 336 336 336 337 337 336 335 334 333 334 335 335 335 335 335 334 333 333 334 335 334 334 335 333 333 332 331 332 331 331 331 331 331 330 328 326 327 328 328 328 329
341 341 342 342 341 341 340 339 339 338 338 338 338 339 338 337 337 335 334 336 336 335 337 337 337 336 336 335 335 336 336 336 336 335 335 335 336 336 335 337 337 338 338 337 336 336 337 337 337 336 336 335 334 334 335 335 335 335 335 334 333 333 334 334 334 334 334 334 333 332 332 332 331 331 331 331 331 330 329 328 328 329 328 327 328
341 341 342 342 341 341 340 339 339 338 337 337 338 338 338 337 336 335 335 336 335 335 336 337 336 336 336 335 336 336 336 337 336 335 335 335 336 335 335 337 337 337 337 336 336 336 337 338 337 336 336 335 334 335 335 335 335 335 334 334 334 333 333 332 333 333 333 333 333 332 332 332 332 332 332 331 331 330 330 329 330 330 328 327 326
341 341 341 342 342 341 340 339 339 338 337 337 337 337 337 336 335 335 335 336 335 334 335 336 335 334 335 336 336 336 336 336 335 334 335 335 335 333 334 337 336 336 336 336 337 336 337 337 336 336 335 334 334 335 335 335 335 334 334 334 333 333 332 332 332 333 333 333 333 333 332 332 331 332 332 331 330 330 331 330 330 330 329 327 326
340 341 341 342 341 340 340 339 339 337 337 337 336 337 336 336 336 336 335 335 335 335 335 336 335 334 334 336 336 335 335 335 334 334 334 334 334 333 335 337 336 335 335 336 337 337 336 337 336 335 334 334 334 335 335 335 334 333 333 333 333 332 331 331 332 331 332 333 334 333 332 332 331 331 331 332 331 330 331 331 329 329 330 329 328
341 341 342 342 340 340 339 339 338 337 337 337 336 337 336 335 337 336 336 336 336 336 336 335 335 334 334 335 335 334 334 334 334 334 334 334 335 335 336 337 336 336 336 336 336 335 335 335 335 334 333 333 334 335 335 335 334 333 332 332 333 333 331 331 332 331 331 331 332 333 332 332 332 331 331 331 331 330 330 330 329 329 329 329 329
341 339 339 341 340 339 339 339 338 336 336 336 336 336 335 334 335 335 335 336 336 336 335 334 334 334 334 335 335 334 334 334 334 334 333 334 336 336 336 336 336 336 336 336 334 334 334 334 334 334 333 333 333 334 334 334 334 333 332 331 332 332 331 332 332 332 332 331 331 333 332 331 331 331 331 331 330 330 330 330 330 330 329 329 329
342 338 335 337 338 338 339 338 336 335 335 335 336 335 334 334 335 335 335 335 335 335 335 334 333 334 334 334 335 335 334 335 335 334 334 336 337 336 336 336 336 336 336 335 334 334 334 333 333 334 334 333 332 333 334 334 334 332 332 331 331 332 332 333 332 332 333 332 330 331 331 331 331 331 331 330 330 330 330 330 330 330 330 329 329
341 336 332 334 336 336 337 335 333 334 335 336 336 335 335 335 335 335 335 335 334 334 335 333 332 333 333 334 335 336 336 336 336 335 335 336 337 337 337 336 336 336 335 335 334 334 333 333 333 333 333 333 332 332 333 334 333 333 333 332 331 332 332 332 332 331 331 331 330 330 330 331 331 330 330 330 330 330 330 330 330 330 330 329 329
337 332 330 332 335 336 336 335 333 334 335 336 336 336 335 336 335 335 335 336 335 334 333 332 333 334 334 335 337 337 336 335 335 335 334 334 336 338 337 336 336 336 335 335 334 334 333 333 332 332 332 333 332 331 332 333 333 333 334 333 332 332 331 330 332 331 330 331 331 330 329 330 330 330 330 330 330 330 330 330 330 329 329 329 329
335 332 331 332 335 337 337 336 335 334 335 335 335 335 335 335 334 334 334 335 334 333 333 332 333 336 337 337 337 336 335 334 333 334 334 333 335 336 336 336 336 335 334 334 335 333 332 332 333 333 333 332 331 331 332 333 333 333 334 333 332 332 330 330 331 331 331 331 330 330 330 331 331 330 330 329 329 329 329 329 329 329 329 329 328
335 334 335 335 335 336 337 336 334 334 334 335 335 335 336 335 334 333 334 334 333 332 333 332 332 336 338 337 335 334 334 334 333 333 333 333 334 334 334 334 334 333 332 333 334 334 334 334 334 334 332 332 332 332 332 333 333 332 332 332 332 331 330 331 331 331 332 331 329 329 330 331 330 330 329 328 328 328 327 328 328 328 329 328 327
337 336 337 337 336 336 337 335 333 333 333 333 334 335 335 335 335 335 334 333 333 333 333 332 334 337 337 335 334 334 334 334 333 333 332 332 332 332 332 332 332 331 330 330 331 332 334 334 333 332 332 331 332 333 332 334 334 332 331 332 332 331 331 332 332 332 331 330 330 329 329 330 329 329 328 327 328 327 327 327 327 328 328 327 327
338 339 339 337 336 337 337 334 333 333 333 333 335 335 335 335 335 334 332 332 334 333 332 333 335 336 335 334 334 334 333 333 333 333 332 332 332 331 331 331 330 330 329 329 329 329 330 330 330 331 332 332 332 333 333 333 333 332 332 333 333 332 331 331 331 331 329 329 330 330 329 329 328 328 328 327 327 327 328 327 327 327 327 327 326
Wind_Speed
18 22 26 25 23 24 24 25 26 28 29 29 29 29 30 29 28 26 24 24 24 25 26 26 25 24 21 19 19 19 18 17 17 16 16 15 15 15 15 14 14 15 15 15 15 15 15 15 14 15 15 16 16 15 15 16 17 17 17 16 17 17 18 18 19 19 20 20 21 21 21 20 19 19 18 18 18 19 19 17 16 18 19 18 17
19 22 26 25 24 24 25 26 27 29 30 30 29 29 30 29 28 26 26 25 24 25 26 27 25 24 21 20 18 18 18 17 17 17 17 16 15 15 15 14 14 15 15 14 15 15 15 15 15 15 15 15 15 15 14 16 17 17 17 16 17 18 19 20 21 21 21 21 21 21 21 20 20 19 18 18 18 18 18 17 17 17 17 16 17
21 21 23 24 24 25 25 26 28 30 30 30 29 30 30 29 29 27 26 25 25 25 25 27 26 23 21 20 19 18 18 18 18 18 17 15 15 15 14 14 15 15 15 14 15 15 15 15 16 16 15 15 14 15 15 16 16 16 16 16 17 18 19 21 21 22 22 21 21 20 20 20 19 18 17 18 18 18 18 17 17 17 16 16 16
22 21 21 23 24 25 26 27 28 29 30 30 30 30 30 30 29 27 27 26 26 25 25 27 26 23 20 19 20 20 20 19 18 17 16 14 14 14 14 15 16 15 14 15 15 15 15 15 15 15 15 15 15 15 15 15 15 16 16 15 17 18 18 20 20 20 19 19 19 18 17 17 17 16 16 17 18 18 18 18 18 18 16 16 17
22 22 21 22 22 23 26 27 28 29 30 30 30 30 30 30 29 28 27 26 26 25 26 26 25 22 20 20 21 22 21 19 17 16 15 15 15 14 15 16 16 15 14 15 15 14 14 14 13 14 14 15 15 14 14 14 16 16 15 15 16 18 18 18 19 19 18 16 16 16 15 16 16 16 15 17 17 16 17 18 18 18 17 16 18
23 23 22 22 20 21 26 28 29 30 30 30 30 31 31 30 29 28 27 27 27 26 26 26 23 21 20 21 22 22 20 19 18 16 15 15 15 14 15 16 15 15 14 14 14 13 13 12 12 13 13 14 14 13 12 13 15 15 15 14 16 17 17 15 15 15 15 14 13 13 14 15 16 15 15 16 16 15 15 16 17 16 16 16 17
23 23 22 22 21 22 27 29 30 30 30 31 31 31 31 30 29 28 27 27 27 27 26 23 21 21 21 22 22 22 20 20 19 18 17 15 15 15 15 15 15 15 14 14 13 12 12 12 11 11 12 12 13 13 13 12 14 15 15 14 16 18 16 13 11 9 7 7 9 10 12 14 16 15 14 14 15 15 13 15 16 16 16 16 16
22 23 22 22 21 24 28 29 30 30 31 31 31 31 30 30 29 28 27 27 27 26 23 22 21 21 21 20 21 21 20 19 19 18 17 16 15 15 16 15 15 14 14 13 12 12 11 11 10 10 10 11 11 12 13 12 13 14 14 14 16 18 16 13 12 10 7 4 8 10 11 13 14 14 13 13 14 15 14 14 15 15 15 16 16
22 23 24 22 20 25 29 29 30 30 31 32 31 31 30 30 29 28 28 28 27 24 22 21 21 21 20 19 20 21 20 18 18 17 17 18 17 16 17 16 15 14 14 13 12 11 10 10 9 9 9 9 10 11 12 12 12 13 13 13 15 17 15 14 13 12 11 9 11 13 14 15 14 13 12 12 12 12 13 13 14 14 13 15 16
21 22 24 22 21 26 29 29 30 31 31 32 31 30 30 30 29 29 28 28 26 23 22 21 20 20 19 20 21 21 19 18 17 17 17 18 16 17 17 16 15 14 14 13 12 10 10 9 8 8 8 8 8 9 11 12 11 11 11 12 12 14 13 12 10 11 11 11 12 14 17 16 15 14 13 12 11 10 11 13 13 14 14 15 16
21 22 23 22 23 28 29 29 30 30 32 31 31 30 29 29 29 29 27 26 24 22 21 21 21 20 21 22 22 19 17 18 18 18 18 17 16 17 17 16 15 14 14 13 11 10 10 9 8 8 8 8 8 8 9 10 11 11 12 13 14 13 10 7 7 9 12 13 13 14 15 16 16 15 14 14 13 12 13 14 13 15 15 15 16
21 22 22 23 26 29 30 29 30 30 31 31 30 29 28 29 28 27 25 24 22 21 21 21 22 21 21 21 20 17 17 19 19 18 18 16 16 18 17 15 15 14 13 12 10 10 9 9 8 8 8 8 8 8 8 9 10 12 15 17 15 11 7 6 7 8 11 13 14 15 16 17 17 16 16 15 15 15 14 13 13 14 15 15 15
22 21 22 24 25 28 30 29 30 29 29 29 29 28 28 28 26 26 25 23 21 20 21 21 22 22 21 20 19 18 18 20 19 19 18 16 17 19 17 15 14 13 13 11 11 9 9 9 8 8 7 7 7 8 8 8 10 12 16 16 14 12 12 12 9 9 11 13 14 15 16 17 16 15 15 15 15 15 15 14 14 14 15 15 14
23 22 23 24 24 27 29 29 29 27 27 28 27 28 27 26 25 25 25 23 22 22 22 23 23 23 23 21 20 18 19 19 19 19 18 17 17 18 17 15 14 13 13 12 10 9 9 9 8 7 7 7 8 9 9 9 10 11 14 15 13 11 11 12 10 10 12 13 14 15 15 15 15 15 15 16 15 14 15 15 15 14 14 14 15
23 22 23 23 23 25 27 28 27 25 25 26 26 27 26 26 26 26 25 24 24 24 23 23 23 24 24 22 21 19 18 18 19 19 18 18 17 18 16 14 14 13 13 12 10 9 9 8 7 7 6 8 9 10 10 10 10 11 13 12 9 7 8 9 8 9 11 13 14 15 15 14 15 16 15 15 14 14 15 15 15 14 14 15 15
23 23 22 22 24 24 25 26 25 24 24 25 27 27 27 26 27 27 26 25 24 23 22 22 22 23 23 22 21 19 18 18 18 18 18 18 17 17 16 14 14 13 12 11 10 9 9 8 7 7 7 9 10 10 10 11 11 11 11 8 7 8 10 10 7 8 10 12 13 14 15 14 15 15 14 14 14 15 14 14 14 14 14 14 14
23 23 23 23 25 25 23 24 24 24 24 26 27 27 27 26 27 26 25 24 23 22 21 22 22 22 22 21 20 18 18 18 16 16 16 17 16 16 15 15 13 13 12 11 9 9 8 8 7 7 7 9 9 9 10 10 11 11 10 10 11 12 13 12 8 9 11 12 13 14 14 14 13 13 13 14 14 14 14 14 14 13 14 14 14
22 22 24 25 25 25 24 23 24 24 24 26 27 27 27 26 27 25 24 23 22 22 22 22 22 21 20 20 19 17 17 17 15 14 15 16 16 15 15 15 13 12 12 11 10 9 9 8 7 6 7 9 9 9 9 10 10 12 13 15 15 14 14 13 10 10 11 12 13 14 14 13 12 12 13 13 14 14 13 13 13 13 14 13 14
17 19 22 25 25 25 25 25 25 24 25 25 24 25 26 27 26 25 23 22 22 22 22 21 21 20 19 19 18 17 16 15 14 14 16 16 16 15 14 14 13 12 12 11 10 10 8 7 7 6 6 7 8 9 9 10 10 12 15 15 14 12 11 10 10 10 12 12 12 14 14 12 12 12 13 13 13 13 13 12 12 13 13 13 14
7 14 16 21 23 23 25 25 24 24 24 24 23 23 25 27 26 24 23 22 22 21 21 20 20 20 19 19 17 16 15 14 14 15 16 17 16 15 14 14 12 11 11 11 10 10 8 6 6 6 5 6 7 8 9 10 9 11 13 13 12 11 9 8 9 11 12 12 12 13 13 12 11 12 12 13 13 12 12 12 12 12 11 12 13
4 5 6 9 15 20 23 23 23 23 22 21 22 23 24 25 24 23 22 21 21 20 20 21 21 20 19 19 17 16 16 15 15 15 16 17 16 15 14 14 13 11 11 11 10 10 8 7 6 6 5 5 6 7 8 8 8 10 10 10 11 9 6 7 9 11 11 12 12 12 12 12 12 12 11 12 12 12 12 12 12 12 10 11 12
8 5 4 1 5 12 18 20 20 20 21 20 21 23 23 22 21 20 20 20 20 20 20 21 21 20 18 18 16 15 15 15 15 15 15 16 16 16 15 14 13 12 12 11 11 9 8 8 7 7 6 5 4 5 6 8 8 8 8 8 8 5 4 6 8 11 10 10 11 12 11 11 11 11 10 10 10 11 11 12 12 12 11 12 12
8 11 8 3 5 7 11 15 15 18 22 22 21 22 22 21 20 20 18 18 20 20 19 20 19 19 18 17 15 14 14 14 14 14 15 16 16 16 14 13 12 13 13 12 11 10 8 7 7 7 7 6 5 3 4 6 7 8 7 5 3 4 5 5 8 10 9 10 11 12 11 12 11 10 10 10 10 10 11 11 11 11 11 11 11
7 12 10 7 8 6 11 16 15 19 22 22 22 22 22 20 19 19 18 19 19 19 18 18 18 18 18 17 16 16 14 12 14 15 15 16 15 14 14 12 11 11 13 13 12 10 8 7 7 7 8 8 6 5 5 5 7 8 6 3 2 5 6 6 9 10 9 10 12 12 13 12 11 9 9 9 9 10 10 10 10 11 11 10 11
11 14 13 15 15 6 12 18 16 21 22 20 21 21 21 18 17 18 18 19 19 17 17 16 17 18 16 16 16 15 14 12 15 16 15 16 15 14 13 11 10 10 11 12 11 10 9 8 7 7 8 8 7 6 7 7 6 7 7 6 4 6 6 6 10 11 11 11 12 13 13 12 10 8 8 9 9 9 10 10 10 10 10 10 11
15 20 22 26 25 13 15 20 18 23 24 22 20 20 20 17 16 17 16 16 16 15 16 16 17 17 15 15 15 13 13 13 15 15 14 15 15 14 12 11 11 10 12 12 10 11 10 9 9 8 8 7 6 6 8 8 7 7 8 8 7 7 7 8 12 13 12 11 12 12 12 11 9 8 8 9 10 9 9 9 9 10 10 10 10
14 22 27 29 34 28 22 21 21 23 24 23 19 17 18 15 15 16 15 14 14 15 15 16 17 16 15 15 15 15 16 16 16 15 14 14 13 12 11 11 11 11 12 11 10 11 11 10 9 9 8 7 7 7 8 9 8 8 8 9 9 9 7 10 15 15 14 11 11 12 11 10 10 9 8 10 10 8 9 9 9 9 10 10 10
12 18 20 20 29 36 33 26 23 24 22 22 18 16 15 12 14 14 14 14 15 16 14 15 16 15 14 15 16 16 16 16 16 15 13 13 12 11 11 11 10 10 10 10 10 10 9 8 7 7 8 8 9 8 9 10 10 9 9 9 10 10 7 13 18 16 14 12 11 11 10 11 11 10 9 10 9 8 9 9 9 8 10 10 9
15 17 19 20 21 26 33 28 23 22 17 18 18 14 12 12 15 14 13 15 16 16 14 15 16 15 14 14 14 13 14 15 15 14 13 12 11 10 10 10 10 10 9 9 9 9 8 7 7 7 7 8 8 9 10 10 10 10 11 11 11 9 6 14 18 14 13 13 11 10 9 10 11 11 11 10 9 9 8 8 8 8 9 9 9
18 21 23 28 28 25 28 26 23 20 16 18 18 14 11 12 15 12 13 15 14 13 14 15 16 17 17 14 13 13 12 13 13 13 12 12 11 10 10 9 9 9 9 8 8 8 8 8 8 8 8 9 8 8 9 9 10 10 11 10 10 5 10 16 15 11 13 14 11 10 10 10 10 10 11 10 9 9 9 9 8 8 9 9 9
15 19 16 17 28 32 30 27 25 23 21 22 21 18 15 12 12 11 14 16 13 12 13 14 15 15 16 14 16 16 12 12 12 12 12 12 12 10 10 9 8 8 7 7 8 8 8 8 8 7 7 8 7 7 7 8 8 8 9 5 6 6 16 18 13 11 15 14 11 11 10 10 10 10 10 9 8 9 9 10 9 8 10 9 9
10 12 11 9 22 32 33 31 27 26 26 25 24 22 19 15 12 12 16 17 15 14 13 14 14 11 11 14 19 19 15 14 12 12 13 13 12 11 10 10 8 7 7 7 8 8 8 7 7 5 5 6 5 5 5 5 6 5 3 7 13 8 9 12 11 13 16 13 12 11 10 10 10 10 10 8 7 9 10 10 9 9 9 9 8
10 9 9 12 21 27 30 31 29 26 25 25 27 24 21 19 14 13 15 15 15 15 13 11 12 13 14 16 19 18 15 14 13 13 13 13 13 12 11 9 9 8 7 7 7 7 7 6 7 5 5 5 4 4 4 4 4 3 1 13 17 9 9 10 11 13 14 13 12 11 9 10 10 10 9 7 7 7 9 10 9 9 10 9 9
13 10 10 12 15 20 23 24 26 25 24 25 26 24 23 20 15 13 14 14 14 14 12 10 9 12 16 17 17 18 14 12 15 15 13 13 14 11 11 10 9 9 8 8 7 6 7 7 7 7 6 6 4 4 4 3 3 2 1 11 14 10 11 12 11 12 12 11 11 9 9 9 9 9 8 8 7 7 8 9 8 8 10 10 9
14 13 12 12 11 15 16 17 21 20 21 22 20 20 22 19 14 13 15 15 13 12 11 10 9 10 14 16 16 16 12 11 14 15 14 14 14 11 11 10 10 9 8 7 6 6 6 6 7 7 6 6 5 4 4 2 2 1 2 8 13 12 11 12 10 10 10 9 9 9 10 10 9 9 9 9 8 7 8 8 7 7 8 8 8
15 15 15 15 14 14 14 16 18 17 17 16 15 16 20 18 13 13 16 17 12 10 11 11 9 9 13 15 13 14 13 12 12 12 13 13 13 13 11 11 11 9 8 8 6 6 5 5 5 5 5 6 6 5 3 2 2 2 2 4 8 8 9 10 8 8 9 8 8 9 9 9 10 10 10 9 8 8 8 8 7 7 7 7 7
15 17 18 18 16 15 15 15 16 16 15 15 15 14 16 16 12 13 17 15 11 10 12 11 9 8 12 14 13 13 13 12 11 9 11 11 12 13 11 11 11 9 8 8 6 6 5 4 3 4 5 6 5 5 3 3 3 4 4 5 7 6 6 8 7 7 7 6 6 7 8 9 9 10 10 9 8 8 8 8 8 7 8 7 7
15 16 17 18 17 15 14 13 14 14 14 16 16 13 13 13 11 13 14 12 11 10 10 10 9 10 12 14 14 13 13 10 9 10 11 11 12 12 11 11 10 9 8 7 6 6 5 5 4 4 4 4 2 5 3 3 4 4 5 6 8 7 6 6 6 6 6 5 5 6 8 8 8 10 11 11 9 8 9 8 9 8 7 7 7
14 15 16 17 16 16 14 12 12 13 13 15 15 12 12 13 12 12 12 11 12 11 9 8 10 11 12 13 14 14 12 9 8 10 12 13 13 10 10 10 9 8 8 7 7 6 6 5 4 3 2 2 2 5 4 4 4 5 6 6 6 7 6 6 7 6 5 4 3 4 6 6 7 9 10 10 9 8 9 7 8 7 7 7 7
14 15 16 16 15 16 16 14 14 13 13 14 14 14 13 13 13 13 13 11 11 11 9 8 11 12 12 12 13 14 13 10 10 12 12 11 10 9 10 9 8 8 8 7 7 7 6 5 4 4 3 2 3 4 4 5 5 6 7 7 7 6 6 5 5 6 5 4 2 2 4 5 6 8 8 9 8 7 7 7 7 8 7 7 8
14 15 16 15 15 16 17 16 16 14 14 15 15 15 13 12 13 15 13 10 11 12 10 10 11 11 13 12 12 14 13 12 13 13 10 8 8 10 10 9 8 8 8 7 6 6 7 5 5 5 4 4 4 5 5 6 6 6 6 8 8 6 6 5 3 5 5 3 2 1 3 4 5 7 7 5 5 5 5 6 7 8 8 7 7
14 14 14 14 14 16 18 18 16 14 13 14 14 12 13 14 13 14 13 10 11 12 10 11 11 11 14 15 14 16 15 14 13 11 10 8 9 10 9 7 7 8 8 8 6 6 7 6 6 5 5 4 4 5 6 5 5 5 6 7 6 5 7 6 4 4 4 3 3 2 2 3 3 6 7 3 2 4 5 5 6 7 7 7 7
13 13 12 13 13 14 18 19 16 14 12 12 13 12 15 17 14 13 12 8 9 11 9 10 12 13 15 17 17 17 16 15 13 12 12 11 10 8 8 7 7 7 7 8 8 7 7 7 6 6 6 5 4 4 5 5 2 1 4 4 3 4 6 6 4 2 3 4 4 3 3 3 3 4 6 5 3 4 5 5 6 6 7 7 7
11 11 10 10 11 14 18 17 15 14 13 14 15 14 17 18 14 12 11 9 8 10 9 10 12 14 14 16 16 15 14 13 13 13 12 11 9 7 7 7 7 7 7 7 8 8 7 8 7 5 6 6 5 5 5 4 2 1 1 1 1 2 3 5 6 2 3 5 4 3 4 4 4 4 4 5 5 5 5 5 6 6 6 6 6
11 11 12 11 11 13 16 15 15 15 14 15 15 17 19 16 12 10 9 9 9 9 8 7 10 12 14 16 15 13 12 10 10 10 9 8 8 8 8 8 8 8 7 7 7 6 6 8 8 7 6 4 3 5 6 4 3 2 1 2 2 2 1 6 7 4 2 4 4 5 5 4 5 5 3 3 4 5 5 5 6 6 5 5 4
12 11 12 12 12 13 14 15 16 17 16 14 14 17 18 14 11 11 9 9 8 8 7 7 11 14 15 16 14 12 10 9 8 8 8 8 8 8 8 8 8 8 8 7 7 6 6 7 8 8 7 4 1 3 6 5 3 3 2 3 3 0 4 7 5 3 3 3 4 4 5 5 5 5 5 5 5 5 5 5 5 5 5 4 4
13 12 11 11 12 13 15 16 17 18 16 14 14 14 13 12 11 11 9 7 6 7 8 9 12 13 13 12 11 11 10 9 9 8 8 9 9 9 8 9 9 9 9 8 7 8 7 6 6 6 4 4 3 3 5 5 4 4 3 3 2 1 7 9 3 3 5 3 4 5 5 5 6 7 6 6 6 6 5 4 5 5 5 5 6
16 18 18 18 16 14 16 15 15 16 13 13 15 13 13 14 13 11 10 9 9 10 11 11 10 9 10 10 9 10 10 9 9 9 9 9 9 9 8 8 8 8 8 8 8 8 8 6 5 4 4 4 5 4 4 4 5 5 5 4 3 3 8 9 5 3 4 4 4 5 6 6 7 7 7 6 6 6 5 5 5 5 6 6 7
18 20 20 21 20 17 16 14 14 17 16 16 17 16 16 17 16 14 14 12 11 12 11 10 10 9 9 10 9 10 10 9 9 8 8 8 8 8 8 7 7 7 6 6 7 6 7 7 5 5 5 5 5 4 3 3 3 3 4 5 5 6 7 8 7 5 3 4 5 5 6 7 6 6 6 6 6 6 5 5 5 6 7 8 10
17 17 17 20 23 20 17 16 18 21 21 20 21 20 18 17 17 16 17 16 13 12 12 11 11 10 10 10 10 10 10 9 9 8 8 8 7 7 7 7 7 6 5 5 6 6 6 6 6 6 6 6 6 4 4 3 3 2 3 4 3 3 4 4 4 5 3 1 3 6 8 8 6 6 5 5 6 6 7 6 7 8 8 9 13
16 17 17 19 22 21 21 23 23 21 19 17 19 19 16 15 16 15 17 18 15 14 15 15 13 12 11 11 10 9 9 9 9 9 8 8 7 7 7 7 7 6 5 5 5 5 5 5 5 5 5 6 6 5 5 4 4 4 4 3 2 2 2 1 5 5 6 4 4 6 7 7 8 7 6 6 7 8 8 8 9 9 10 11 15
Wind_Direction
140 137 149 164 160 161 163 163 167 165 165 166 167 165 163 162 161 159 157 155 152 151 153 154 153 151 148 143 139 136 133 129 128 124 121 120 119 119 120 122 122 119 115 116 115 111 106 99 95 93 92 94 98 99 98 106 110 105 101 98 98 94 86 86 89 92 95 94 92 91 90 89 87 85 83 82 81 78 75 71 69 70 69 69 69
143 139 148 160 160 161 162 164 166 165 167 166 167 165 163 163 161 160 157 156 153 151 153 155 155 154 150 147 143 139 134 130 128 125 123 123 123 122 123 124 123 122 118 119 116 111 107 99 93 93 94 96 97 99 102 110 115 114 112 107 101 97 91 90 93 96 96 95 94 92 90 87 85 83 81 79 77 78 79 76 72 69 69 69 69
138 140 143 154 161 160 162 165 166 166 167 167 167 165 164 164 162 161 158 157 153 150 152 156 156 155 152 148 145 141 136 131 129 127 127 126 125 124 126 127 124 125 124 122 119 114 108 101 93 89 91 94 97 101 105 109 115 118 117 113 108 104 97 93 93 95 95 95 93 90 89 87 85 83 81 79 75 74 74 75 77 75 75 72 66
138 144 139 150 160 159 164 165 166 167 167 167 166 164 164 164 163 161 159 157 154 150 151 156 156 154 151 147 144 142 138 133 132 132 132 128 127 130 132 129 126 127 127 124 121 117 111 104 96 90 87 88 96 105 108 109 117 124 121 118 115 111 104 98 96 96 94 92 91 88 87 87 84 78 75 72 70 68 64 65 72 75 77 77 71
139 147 141 146 153 159 166 164 166 166 167 167 165 164 164 164 163 161 160 157 153 151 152 156 154 152 150 145 143 141 140 138 138 138 136 134 135 137 134 130 130 132 128 126 123 118 114 108 101 94 88 85 91 103 110 115 122 127 125 122 121 116 108 101 100 98 94 92 95 92 90 88 82 74 69 65 64 68 65 64 69 71 71 74 73
141 149 144 144 146 158 164 164 165 164 166 165 164 164 163 163 163 161 159 158 155 153 153 154 152 149 147 145 143 142 143 144 144 143 141 144 145 139 134 133 134 134 129 127 125 122 117 111 104 98 93 88 87 95 105 115 124 129 128 129 127 120 113 107 104 106 105 106 102 95 95 90 82 74 66 62 59 63 69 71 72 73 71 70 71
144 151 147 146 148 160 163 163 163 163 165 163 164 164 163 163 162 161 159 159 156 153 151 151 149 146 145 144 144 145 147 148 148 147 148 151 146 139 139 139 137 134 132 131 128 126 119 113 110 105 97 91 88 91 99 112 127 132 132 135 133 124 115 103 99 104 112 123 109 92 93 88 83 74 65 65 61 61 70 77 76 73 73 72 71
147 156 151 148 153 164 161 161 162 163 164 163 165 163 163 163 162 161 159 159 155 152 148 148 147 143 141 144 148 149 150 150 150 151 154 151 143 142 144 142 140 137 134 134 131 127 119 115 114 110 102 94 91 92 100 111 128 136 137 139 137 131 116 94 87 85 79 101 90 76 88 90 86 79 70 71 69 68 70 74 76 73 75 76 73
149 159 155 147 155 165 161 161 162 162 163 163 164 163 163 163 163 161 159 157 154 151 147 147 146 144 143 146 151 151 150 149 150 153 153 149 146 146 145 143 143 139 138 138 135 129 121 119 115 112 107 99 95 95 100 108 123 138 145 147 142 136 119 94 81 68 67 79 71 59 74 87 84 80 75 74 75 76 75 72 73 71 76 78 76
151 158 154 147 156 165 162 162 162 162 162 162 163 162 163 163 162 160 158 156 155 152 147 147 146 146 147 147 148 150 151 150 152 152 149 147 146 146 145 146 145 145 146 141 133 129 126 123 118 115 112 108 105 100 100 104 115 128 143 152 145 134 119 98 68 50 67 76 73 64 69 80 78 76 75 74 71 67 71 74 76 74 74 77 76
151 158 154 150 162 164 162 162 161 161 159 160 161 160 162 162 161 158 157 157 156 153 150 149 148 148 148 148 147 150 154 155 157 152 148 147 145 147 148 150 152 155 151 138 132 132 131 127 126 131 124 114 109 101 100 104 110 117 124 129 130 128 121 98 51 58 80 78 82 78 74 77 76 77 76 76 73 66 71 75 77 77 75 76 75
152 158 155 155 166 165 161 161 159 159 158 160 160 160 161 160 160 159 158 156 155 154 153 150 149 150 149 150 150 152 155 158 160 153 150 148 149 152 152 155 156 156 145 138 139 138 139 138 137 138 126 114 112 107 105 105 108 116 117 118 120 120 108 71 51 76 84 80 83 80 78 80 80 83 81 80 78 74 77 79 76 75 75 77 76
155 155 153 158 166 164 161 160 158 159 158 160 161 161 161 159 159 158 158 156 154 153 152 151 151 152 151 153 152 152 156 160 159 154 153 151 155 157 156 158 156 151 144 145 149 146 148 147 142 132 122 117 117 114 112 109 108 118 121 118 111 98 79 62 62 83 81 83 85 82 83 81 83 85 81 80 79 79 79 79 79 78 79 80 80
158 151 149 156 160 161 161 159 158 159 158 160 160 161 161 159 159 158 159 157 154 153 151 153 157 156 153 153 152 152 157 161 161 159 157 155 159 161 160 159 158 153 150 152 153 157 156 146 137 125 121 122 122 118 114 111 108 117 122 116 105 94 76 63 71 87 84 85 85 85 86 83 87 86 83 82 82 85 81 79 81 82 83 82 81
156 150 151 154 155 160 161 159 158 156 157 158 158 159 160 159 158 158 159 156 154 155 155 158 161 159 153 151 153 155 159 162 164 163 159 158 164 166 163 160 158 156 154 158 162 166 156 141 126 117 122 126 124 119 113 110 108 114 122 117 103 88 74 68 80 89 87 89 86 86 85 85 91 89 86 83 83 86 82 82 83 82 83 82 82
154 151 153 152 151 158 161 160 158 156 157 157 157 158 157 157 157 157 156 154 155 157 158 159 159 158 153 152 155 157 158 158 160 162 160 163 168 168 165 159 157 157 155 163 170 165 150 138 121 112 125 130 122 116 112 108 106 109 116 114 92 81 79 79 92 92 90 92 89 88 87 87 90 89 87 85 84 86 85 85 84 83 83 83 83
155 153 151 151 151 155 158 160 160 158 158 157 158 158 157 156 155 155 155 156 157 159 158 155 152 153 152 152 156 157 155 155 156 159 163 168 171 168 164 159 158 161 163 170 170 160 154 141 121 112 125 135 126 116 111 105 101 100 104 104 90 84 81 78 86 90 89 92 91 89 90 92 92 91 89 88 87 87 87 86 86 86 85 85 83
157 155 153 153 153 156 156 160 162 159 159 159 159 159 158 157 157 158 158 158 156 157 156 151 149 148 149 151 156 157 155 156 157 159 164 170 173 170 164 160 160 165 172 174 167 165 163 142 123 114 120 137 136 122 112 104 98 95 100 102 94 88 84 81 88 92 86 85 89 91 93 97 94 91 91 91 90 90 91 89 89 87 86 85 82
158 156 157 156 156 157 157 158 160 159 158 158 160 160 159 159 160 161 159 157 155 155 153 149 148 146 147 153 156 157 156 158 160 161 162 167 171 174 173 166 162 167 174 172 167 171 163 140 130 119 117 132 140 132 118 109 101 100 102 96 88 82 77 83 94 93 86 84 89 94 99 103 97 93 94 94 93 92 93 91 89 90 89 88 85
152 161 162 160 160 157 155 157 157 156 153 153 159 158 159 161 162 162 160 159 157 156 153 151 150 148 149 153 154 154 157 160 162 161 160 163 167 173 177 174 170 169 173 170 169 172 158 143 138 124 117 124 137 141 129 119 111 111 104 87 78 68 59 80 96 92 88 90 94 99 105 106 99 96 98 97 96 94 94 92 91 92 93 94 93
89 180 191 160 160 158 155 154 153 152 148 148 154 156 159 161 161 162 162 161 161 160 157 155 153 153 153 152 154 155 158 162 163 162 161 162 165 170 170 173 180 180 175 170 174 173 160 152 148 135 124 117 128 142 143 134 125 121 107 87 80 67 67 96 103 98 93 95 100 108 111 106 101 99 99 100 101 99 96 95 95 93 90 93 95
103 146 221 49 125 154 154 153 151 148 147 148 151 156 158 157 158 161 163 164 165 165 162 160 159 158 156 154 155 156 158 160 162 162 162 163 167 169 165 168 178 182 178 175 178 176 166 160 155 148 140 130 122 131 147 147 144 137 116 92 84 83 101 108 105 101 96 99 106 113 115 109 107 104 102 103 106 106 104 104 101 97 95 97 99
124 141 150 98 108 142 152 148 144 143 148 151 152 156 156 155 158 159 162 166 166 166 163 161 161 159 159 158 156 155 157 159 162 162 162 163 164 163 162 166 173 180 183 182 183 178 173 165 157 157 153 148 139 137 159 161 166 161 137 102 93 126 128 123 112 103 100 107 113 117 116 112 109 107 108 106 106 107 107 107 104 102 101 102 102
136 146 136 124 149 152 156 148 138 145 151 153 154 157 158 157 158 159 162 164 163 162 161 159 158 159 160 160 159 158 157 160 168 167 163 163 162 160 161 164 170 181 184 183 183 181 179 175 170 166 163 168 175 184 192 190 189 185 178 186 187 153 147 142 121 110 110 112 117 116 113 114 111 109 114 113 112 111 109 108 107 105 102 101 104
153 167 153 143 154 154 163 157 143 150 154 154 155 156 159 161 160 161 162 164 164 161 160 159 157 162 163 158 160 162 159 163 173 173 167 165 164 163 163 165 169 177 177 176 181 183 181 184 191 183 182 197 207 203 205 206 197 199 203 215 208 171 171 153 125 120 118 117 122 116 113 118 113 109 121 124 119 117 117 116 114 111 107 102 103
168 179 169 156 158 159 166 161 153 159 160 157 157 159 162 165 163 160 162 165 165 162 163 165 163 165 166 162 163 167 166 167 170 170 167 165 166 165 166 170 171 172 174 174 178 183 185 192 200 202 207 211 216 219 216 210 205 215 209 202 202 195 190 150 127 123 120 122 127 121 123 124 105 98 118 126 121 121 121 119 117 113 110 105 103
167 179 176 165 160 160 164 164 163 166 164 159 159 163 165 165 161 160 162 163 168 168 164 165 166 165 165 164 168 172 170 166 166 167 167 167 170 169 167 170 168 171 177 177 178 184 192 194 193 202 213 212 217 222 220 220 219 221 213 204 205 206 191 138 125 122 121 128 129 127 132 123 98 91 111 125 126 126 122 117 116 113 111 107 104
163 177 177 166 159 158 159 164 166 162 161 162 161 163 169 166 159 162 161 164 176 174 167 164 165 167 166 166 169 171 167 165 167 167 167 167 169 166 160 163 162 167 174 173 178 184 189 187 184 197 211 216 219 218 219 225 223 221 217 211 209 203 168 128 127 128 131 132 130 126 125 117 105 99 107 123 126 121 119 117 117 112 111 109 108
173 177 169 158 156 153 151 156 163 158 155 164 165 164 173 170 161 164 163 168 178 174 172 169 167 172 170 167 167 168 165 164 165 165 166 164 161 159 156 160 159 163 168 166 172 177 178 181 185 194 208 213 214 216 221 223 221 222 215 209 211 205 148 123 125 132 139 134 133 126 119 123 119 109 103 114 124 121 121 119 116 114 114 114 111
175 172 165 160 158 153 146 152 164 158 148 158 166 167 173 178 169 168 166 169 177 174 176 173 176 180 170 168 169 164 163 162 163 164 163 158 156 156 155 155 154 157 161 159 159 164 171 177 184 190 199 208 209 213 219 222 221 218 219 216 200 172 74 98 122 143 142 134 142 135 123 131 128 116 106 107 117 122 127 123 117 111 107 107 105
168 170 178 179 161 148 140 149 164 162 157 162 168 168 170 177 172 172 172 170 172 175 181 181 186 181 162 168 173 163 158 159 163 163 159 157 156 155 152 152 152 152 153 153 154 158 168 175 187 194 199 207 208 212 221 226 223 218 227 219 148 99 56 80 116 148 149 144 153 145 130 132 129 125 118 115 116 115 122 123 118 109 101 100 101
176 184 201 201 155 144 142 148 160 168 169 168 168 168 169 169 165 173 176 175 178 180 187 188 187 179 161 169 174 167 160 160 165 164 162 159 156 153 151 151 148 147 146 149 154 159 169 177 189 200 202 210 210 215 235 237 236 238 227 62 77 96 74 94 123 138 154 157 153 149 139 131 127 128 128 126 122 111 112 118 119 113 109 107 101
183 189 181 171 156 147 147 151 158 168 171 170 170 169 169 167 164 173 179 182 186 184 187 193 186 182 182 177 175 175 167 166 172 167 166 161 155 153 150 149 148 151 152 152 159 166 173 176 184 193 196 208 214 216 233 234 242 263 63 59 66 102 119 124 135 141 160 165 154 152 148 140 132 129 128 129 131 121 113 115 120 118 116 113 101
171 172 165 167 161 143 139 148 157 164 169 173 173 169 168 167 163 169 181 185 185 189 193 200 186 171 183 185 183 186 178 177 180 170 168 162 154 154 151 153 157 162 159 153 163 175 178 178 185 189 192 203 207 208 218 213 219 252 38 58 68 97 117 127 142 148 157 163 161 157 151 150 143 135 130 128 134 138 126 121 126 122 116 111 100
164 158 153 152 149 137 132 140 152 162 169 172 171 168 169 167 164 167 177 180 181 195 200 201 192 169 182 190 189 191 186 189 190 177 169 160 152 153 154 158 161 162 160 160 170 177 175 179 186 184 184 199 199 203 211 191 188 194 35 58 79 95 112 132 151 152 147 156 168 168 161 160 160 156 146 134 131 138 141 139 138 127 117 111 105
155 145 141 144 149 149 143 139 149 162 165 167 167 167 171 172 175 175 178 183 185 199 204 203 202 178 182 190 190 194 190 193 201 187 167 155 152 156 158 162 164 160 159 167 175 171 171 174 182 182 182 195 193 193 194 165 158 138 109 82 102 110 111 126 146 150 151 162 167 164 160 164 176 172 150 137 133 136 144 148 144 136 129 125 124
146 145 144 148 152 152 152 149 151 160 163 169 169 166 173 176 181 184 186 192 193 204 209 204 197 180 184 191 189 193 192 194 205 188 162 155 158 162 165 165 162 158 156 167 175 169 168 165 167 178 195 213 190 169 172 166 161 142 125 109 122 136 118 118 136 146 159 171 167 165 160 165 179 172 149 140 140 134 133 139 142 142 141 138 136
140 149 151 149 147 145 152 152 150 158 163 171 174 171 173 175 182 188 192 200 198 205 207 196 195 194 193 194 191 193 193 193 197 177 163 166 168 168 172 167 157 154 154 161 169 168 166 166 171 171 207 250 172 143 165 165 148 129 120 114 119 126 115 118 135 145 164 179 186 187 170 167 172 166 155 147 146 140 132 133 137 138 138 140 143
139 149 151 149 147 146 149 150 154 160 164 170 175 175 177 184 190 193 199 206 205 206 198 189 199 195 187 189 193 194 189 188 187 177 176 177 169 166 170 166 155 151 152 157 163 164 159 159 168 157 178 262 119 136 162 151 137 127 123 118 113 117 120 132 142 146 166 179 200 203 169 167 165 158 156 153 152 147 141 139 139 137 131 133 137
144 149 150 151 152 152 151 155 162 163 167 172 175 179 185 189 195 204 207 207 207 206 194 188 199 191 178 182 189 187 185 191 187 181 187 179 166 171 173 164 154 149 148 158 166 162 155 153 155 151 151 151 131 143 156 147 139 131 126 119 114 120 128 140 149 149 159 169 204 212 155 156 156 142 143 154 157 147 135 134 138 139 133 129 124
147 151 154 154 155 157 155 159 166 169 173 176 178 183 189 189 193 204 207 206 205 204 195 187 192 193 182 179 184 183 186 195 187 181 187 180 177 183 171 157 155 155 152 154 155 146 149 155 148 151 164 162 156 152 153 158 155 145 134 121 117 124 129 141 160 147 148 164 190 203 123 125 132 129 130 143 155 151 138 121 122 135 142 140 128
151 153 154 149 150 158 161 164 170 174 176 177 178 180 188 192 192 199 202 203 202 198 193 183 181 190 185 180 186 189 188 189 184 179 179 180 194 183 157 155 159 155 152 144 139 142 151 160 157 161 170 169 170 159 160 179 182 169 156 133 122 124 120 120 127 133 140 142 136 124 111 101 93 117 124 114 111 138 142 119 108 128 144 153 148
157 151 145 147 151 162 169 169 171 176 180 181 179 178 192 196 195 200 199 195 196 192 191 185 178 184 181 176 183 187 186 183 176 178 178 179 190 174 148 159 154 141 142 139 150 164 159 160 171 176 172 172 177 171 183 209 242 236 180 159 142 145 129 120 123 119 118 120 120 124 129 120 105 113 121 124 127 125 125 112 101 109 122 135 142
163 145 138 154 165 175 178 173 172 179 188 189 181 183 198 201 199 201 199 194 190 186 192 186 178 183 180 172 175 180 182 181 178 181 180 171 168 159 151 156 145 137 144 152 165 171 164 166 177 181 183 187 179 173 189 218 258 322 160 139 156 189 152 133 138 114 91 115 119 124 132 142 139 127 117 123 131 122 107 101 100 95 93 100 108
160 143 146 166 183 190 187 184 184 183 189 195 185 182 192 195 193 191 193 194 187 185 195 187 177 183 181 174 169 172 179 181 181 179 168 159 156 152 151 150 146 146 151 161 164 165 173 176 175 181 202 219 190 175 183 209 223 192 133 122 164 230 137 138 144 125 92 118 123 126 128 130 129 127 126 116 117 115 102 96 102 97 89 95 101
153 143 153 169 187 193 187 181 179 179 186 196 187 179 183 182 179 181 186 186 184 192 193 187 190 187 180 173 164 167 178 172 170 167 156 156 154 149 151 153 154 155 157 160 158 167 182 181 177 185 207 227 225 193 188 196 210 199 199 160 150 13 135 150 156 133 128 118 115 122 113 111 115 116 120 117 114 113 100 89 99 105 103 113 121
136 140 153 171 197 197 183 172 170 178 186 189 183 177 179 178 174 179 187 181 178 197 199 199 201 188 171 165 160 165 170 161 158 158 154 154 150 147 152 155 157 159 160 158 159 173 180 176 179 183 196 198 192 227 205 187 193 202 215 178 133 95 145 154 170 149 145 130 119 123 108 99 100 98 102 105 103 102 100 94 93 96 94 102 119
142 161 161 168 192 193 181 169 168 184 185 178 181 178 177 179 173 172 185 190 186 192 196 199 197 180 163 161 163 163 159 155 153 152 152 151 149 148 150 152 155 159 159 157 163 173 171 163 168 172 182 188 190 234 240 198 200 199 201 194 167 166 163 160 178 181 160 151 144 132 120 110 97 92 92 92 92 95 100 96 91 92 90 91 100
156 174 163 161 175 183 184 168 161 180 180 174 180 178 173 174 169 169 180 188 190 186 182 189 191 180 169 161 158 156 151 150 150 148 148 146 145 143 145 147 144 148 154 152 155 158 156 155 167 181 187 189 191 227 245 217 222 212 208 213 191 180 174 164 171 179 159 149 156 149 140 133 113 100 98 94 92 100 107 106 103 101 97 93 91
156 172 164 160 167 172 175 165 166 181 180 174 178 177 173 171 167 174 180 177 180 182 179 189 194 181 167 159 154 152 149 146 142 141 137 136 138 136 135 136 130 134 139 134 138 140 144 152 166 178 182 183 190 207 211 204 222 224 215 220 215 199 163 146 177 163 124 116 163 150 150 146 133 121 117 116 119 122 125 126 118 107 104 98 93
157 164 161 161 166 164 159 159 168 182 183 179 178 174 172 171 167 174 181 173 172 181 182 187 187 174 163 157 152 149 144 140 136 132 129 128 130 129 129 129 125 127 129 126 136 143 151 163 171 181 182 181 188 197 202 211 220 214 209 203 221 238 112 147 236 175 147 183 172 145 158 160 142 129 126 129 132 129 124 121 114 105 103 98 92